STARLINK-33580, 63711

Orbit data source: Space-Track

STARLINK-33580, 63711 is a payload satellite owned by SpaceX/Seattle (US) in LEO that was launched on Mon, 28 Apr 2025 UTC via an FALCON 9 launch vehicle from the Air Force Western Test Range (AFWTR). Payload-class satellites include a variety of spacecraft equipped with specific instruments for various scientific and technological missions. These include communications satellites like Starlink; space stations such as the ISS; scientific satellites like the Hubble; Earth observation satellites from companies like Planet Labs, Umbra, and HawkEye 360; GPS; miniature CubeSats for education and research; and military/defense satellites.

Loading next visibility...
Identifier
63711, 2025-087Q
Orbit
LEO
Country
Flag of USUS
Related business
Manufacturer
SpaceX/Seattle
Mission
Operational Commercial Communications
Bus & Motor
STARLINK V2MO, Unknown motor
Mass
575 kg wet, ~530 kg dry
Launch date (UTC)
2025-04-28 (8 months ago)
Launch vehicle
FALCON 9
Launch site
Air Force Western Test Range (AFWTR)
Object type
Payload
Rocket body
Debris
Shape & HBR
Box + 2 Pan, 17.7 m
Radar Cross Section
36.964 m², Large (>1 m²)

Expand to show TLE details & history
Last TLE update: 6 hours ago

TLE from 6 hours ago
0 STARLINK-33580
1 63711U 25087Q   25349.94716265  .00005006  00000-0  18112-3 0  9990
2 63711  53.1580 248.8617 0001413  42.8625 317.2486 15.30181552 36375
Epoch: 2025-12-15T22:43Z
TLE epoch observation values (Epoch: 2025-12-15T22:43:54.852Z)
Latitude
-0.00002°
Longitude
-176.95529°
Altitude
475.459 km
Speed
7.63 km/s
True Right ascension
16h 35m 26s
True Declination
0° 00' 00"
Sunlit
Object was in daylight at epoch
Visualization orbit readout
Latitude
Unknown
Longitude
Unknown
Altitude
Unknown
Speed
Unknown
Apparent Right ascension
Unknown
Apparent Declination
Unknown
Sunlit
N/A
Visualization observer readout
Local Sidereal Time
03:06:50
Azimuth
Unknown
Elevation
Unknown
Doppler factor
Unknown
Orbital elements
Apogee altitude
476.495 km
Perigee altitude
474.558 km
Semi-major axis
6,853.664 km
Eccentricity
0.00014
Inclination
53.158°
RAAN
248.8617°
Arg. of periapsis
42.8625°
True anomaly
317.23761°
Mean anomaly
317.2486°
Eccentric anomaly
317.2431°
Mean motion
3.82524 °/min
Orbital period
94.11 mins
BSTAR
0.00018112
Loading maneuver chart data...
Computing Atmospheric mass density...
Loading historical data...
Loading historical data...
Loading historical data...
Loading historical data...
Loading historical data...
Loading historical data...
Loading historical data...

Documentation

Showing up to 5 results
|